Dewpoint
10 11 11 11 10 11 10 10 10 10 9 9 8 7 6 5 5 5 5 5 5 4 3 3 3 1 -2 -6 -5 -3 -3 -3 -3 -5 -8 -9 -9 -8 -8 -7 -6 -5 -4 -4 -4 -4 -4 -4 -4 -5 -5 -6 -6 -7 -9 -10 -10 -11 -13 -14 -15 -15 -15 -15 -15 -15 -15 -15 -15 -16 -17 -18 -19 -20
10 11 11 11 10 10 10 10 9 9 9 8 6 6 5 5 5 4 5 5 5 4 2 0 -0 -2 -5 -5 -4 -3 -3 -3 -4 -7 -8 -8 -7 -6 -4 -3 -2 -2 -2 -2 -2 -1 -2 -2 -2 -2 -2 -2 -3 -3 -4 -6 -7 -8 -10 -12 -14 -14 -14 -14 -14 -14 -14 -14 -14 -15 -16 -17 -18 -19
9 10 10 11 10 9 9 9 7 7 8 7 5 4 4 5 5 4 4 5 4 3 2 -1 -2 -4 -4 -4 -4 -4 -3 -3 -4 -7 -7 -6 -4 -3 -1 -1 -1 -1 -1 -0 -0 0 0 1 1 0 1 0 0 -0 -1 -2 -3 -5 -7 -10 -12 -13 -14 -14 -13 -14 -13 -14 -14 -14 -15 -16 -17 -18
8 9 10 11 9 8 9 7 5 6 6 6 5 4 3 4 4 3 2 3 3 3 2 -1 -3 -3 -3 -3 -3 -3 -2 -2 -4 -6 -6 -3 -1 -0 -0 -0 -0 -0 -0 0 1 1 1 2 2 2 2 2 2 2 1 1 0 -2 -6 -9 -11 -12 -13 -13 -13 -13 -13 -13 -14 -14 -15 -16 -16 -17
9 10 10 10 9 8 9 7 5 5 5 6 5 4 3 3 3 3 0 1 2 3 2 -1 -2 -3 -3 -2 -2 -2 -1 -3 -4 -4 -3 -2 -0 0 0 0 -0 -1 -0 -0 0 1 1 1 2 2 2 2 2 2 2 2 1 -1 -5 -8 -11 -12 -13 -13 -13 -13 -13 -13 -14 -15 -15 -16 -16 -17
9 10 10 9 8 7 8 7 6 6 5 5 5 4 4 3 3 3 1 0 1 2 0 -1 -2 -3 -4 -2 -2 -1 -1 -2 -3 -3 -2 -2 -0 0 0 -0 -2 -2 -1 -0 0 1 1 1 2 2 2 3 3 3 3 3 2 -0 -5 -8 -11 -12 -12 -12 -12 -12 -13 -13 -14 -15 -16 -16 -17 -17
7 8 8 7 6 5 6 6 6 6 5 4 4 4 4 4 4 4 3 2 2 2 1 -0 -0 -2 -3 -1 -1 -1 -0 -1 -2 -2 -1 -1 -1 -0 -0 -1 -1 -2 -1 -0 0 0 1 1 1 2 2 2 3 3 3 3 3 0 -5 -9 -11 -12 -12 -12 -12 -12 -13 -14 -14 -15 -16 -16 -17 -17
6 6 6 5 4 4 5 6 7 6 6 5 5 5 5 5 5 5 4 4 3 2 2 1 0 -1 -2 -1 -0 -0 0 0 -1 -1 -1 -1 -1 -1 -1 -0 -0 -1 -1 0 0 1 1 1 1 1 2 2 2 3 3 3 3 0 -5 -9 -11 -12 -12 -12 -12 -12 -13 -14 -15 -15 -16 -16 -16 -17
6 6 6 6 6 6 6 7 7 6 6 6 6 5 5 5 5 5 4 5 4 3 3 2 1 0 0 0 0 0 0 1 1 -0 0 0 0 -0 -0 0 0 -0 -0 0 0 0 0 1 1 1 1 2 2 3 3 3 3 -0 -7 -11 -11 -12 -12 -12 -12 -13 -14 -14 -15 -15 -15 -16 -16 -17
6 6 6 6 6 7 7 7 7 7 7 7 6 6 5 4 4 4 4 5 5 4 4 3 1 1 2 1 1 1 0 1 1 1 1 1 1 1 2 2 1 0 0 0 0 0 0 1 1 1 1 1 2 3 3 3 3 -2 -9 -11 -11 -11 -12 -12 -12 -13 -14 -15 -15 -15 -16 -16 -16 -17
5 5 5 5 5 6 7 7 6 6 6 5 5 5 4 4 4 4 4 4 5 5 4 4 3 2 2 2 2 1 1 1 1 1 1 1 1 2 2 3 2 1 -0 0 0 0 0 1 0 1 1 1 2 2 3 4 2 -4 -11 -11 -11 -11 -11 -12 -13 -13 -14 -14 -14 -15 -15 -16 -16 -17
1 2 3 3 4 4 4 5 5 4 4 4 4 5 4 4 4 4 4 4 4 4 4 4 4 3 2 2 2 2 1 1 1 1 1 2 2 2 2 3 3 2 0 -0 0 0 0 1 1 1 1 1 2 2 3 4 1 -7 -11 -10 -11 -11 -11 -12 -12 -13 -13 -14 -15 -15 -16 -16 -16 -16
-1 2 1 0 1 1 -0 0 0 0 1 2 4 5 4 4 4 4 4 4 3 3 4 4 4 3 2 2 2 2 2 1 1 1 2 2 2 2 3 3 3 2 1 1 1 1 0 1 1 1 1 2 2 3 4 3 -2 -9 -11 -10 -11 -11 -11 -12 -12 -13 -14 -14 -15 -16 -16 -16 -16 -16
-2 -0 -1 -3 -2 -2 -2 -1 -1 -1 0 1 3 4 4 4 5 5 5 4 3 3 3 3 3 3 3 3 2 2 2 2 2 2 2 2 2 3 4 4 3 1 1 1 2 2 1 1 1 2 1 2 2 3 3 1 -7 -11 -10 -10 -11 -11 -12 -13 -13 -14 -15 -15 -16 -16 -16 -16 -16 -16
1 -1 -2 -3 -2 -0 0 1 2 2 3 3 3 3 3 3 4 4 4 4 4 4 3 3 3 3 3 3 2 2 3 2 2 2 2 3 3 3 4 4 3 1 0 1 2 2 2 1 2 2 2 2 2 3 2 -3 -10 -10 -10 -11 -12 -12 -13 -13 -14 -15 -15 -16 -16 -15 -15 -15 -15 -15
5 4 3 1 1 3 4 4 4 4 4 5 5 5 5 4 4 4 5 5 5 5 4 4 3 3 3 3 2 3 3 3 3 3 3 3 3 3 3 3 3 2 1 0 1 3 3 2 2 2 2 2 3 3 -2 -8 -10 -10 -11 -12 -12 -13 -13 -14 -15 -15 -16 -16 -15 -15 -14 -14 -14 -13
6 7 7 6 5 5 5 5 6 6 6 6 6 6 6 5 5 6 6 6 6 5 5 5 4 4 4 3 3 3 3 3 3 3 4 3 3 3 3 3 2 2 2 2 2 2 3 3 2 2 2 2 2 -1 -7 -10 -10 -11 -12 -13 -13 -14 -14 -15 -16 -15 -15 -15 -14 -14 -13 -13 -13 -12
6 7 7 8 8 8 6 6 6 6 6 6 6 6 6 5 6 6 6 7 6 6 5 4 4 4 4 5 5 4 4 5 4 4 4 3 2 2 2 2 2 2 2 3 3 3 3 3 2 2 1 1 -1 -6 -10 -11 -12 -13 -13 -13 -14 -14 -15 -16 -16 -15 -15 -14 -13 -13 -12 -11 -11 -10
6 6 6 6 8 8 7 6 6 5 6 6 6 6 6 6 6 6 6 6 6 6 5 4 4 4 4 5 6 5 5 6 5 4 4 4 3 3 2 1 1 2 3 3 3 3 3 3 2 1 -0 -0 -2 -4 -7 -10 -13 -13 -13 -15 -15 -15 -16 -15 -14 -14 -13 -12 -12 -11 -11 -10 -9 -9
5 6 6 6 6 7 6 6 6 6 6 6 6 6 7 7 7 7 7 6 5 5 5 4 5 4 4 5 5 6 6 6 6 5 4 4 3 3 2 3 2 3 3 3 2 2 2 2 1 -1 -1 -1 -2 -3 -4 -8 -12 -13 -14 -16 -15 -15 -15 -13 -13 -12 -11 -11 -11 -10 -9 -9 -8 -8
6 5 6 6 6 6 6 6 6 6 6 6 6 7 7 8 8 8 7 6 5 5 5 5 5 5 5 5 5 6 6 6 7 6 4 3 3 3 3 3 3 3 2 2 3 3 2 1 0 -2 -3 -3 -4 -5 -4 -7 -12 -15 -16 -17 -16 -14 -13 -12 -11 -11 -10 -10 -9 -9 -8 -8 -8 -8
6 6 6 6 6 6 6 6 6 6 7 7 7 7 7 8 8 8 7 6 5 5 4 4 4 5 5 5 5 6 6 6 6 6 5 4 3 3 3 2 2 3 2 3 3 2 0 -1 -1 -3 -5 -5 -5 -4 -4 -6 -12 -15 -14 -14 -14 -12 -11 -11 -11 -9 -9 -9 -8 -8 -8 -7 -7 -7
6 6 5 5 5 6 5 5 5 5 5 6 6 6 7 7 7 7 7 6 5 5 4 4 4 5 5 5 6 6 6 6 6 6 6 4 3 3 3 3 3 3 2 2 2 0 -1 -1 -2 -3 -5 -6 -5 -3 -3 -5 -9 -10 -11 -10 -8 -8 -8 -8 -7 -6 -5 -6 -6 -7 -7 -6 -7 -6
4 4 5 4 3 3 3 3 3 3 3 4 4 5 6 6 6 7 7 6 5 5 5 4 4 4 4 5 5 6 6 6 6 5 5 4 3 3 3 3 3 2 1 1 -1 -3 -3 -2 -3 -4 -4 -6 -7 -5 -3 -4 -5 -7 -9 -9 -6 -5 -5 -4 -4 -4 -4 -4 -4 -4 -4 -5 -6 -6
3 3 4 2 1 1 1 0 -0 -0 1 2 3 4 4 4 4 4 5 5 4 5 5 4 4 4 4 4 5 6 6 6 5 5 4 4 3 3 3 2 1 -0 -0 -0 -2 -6 -6 -4 -3 -4 -5 -5 -6 -5 -5 -5 -4 -4 -6 -6 -5 -4 -3 -3 -3 -3 -3 -3 -3 -3 -3 -4 -5 -5
2 2 2 2 1 1 1 -0 -1 -2 -2 -2 -0 1 1 1 1 1 3 4 3 3 4 4 4 4 4 5 5 5 6 6 5 5 4 4 3 3 2 1 -0 -0 -1 -3 -5 -9 -9 -6 -5 -8 -9 -7 -6 -6 -5 -5 -4 -3 -4 -4 -4 -4 -4 -4 -4 -4 -3 -3 -3 -3 -3 -3 -4 -4
1 1 1 1 1 -0 -0 -0 -1 -1 -1 -2 -2 -1 -0 0 1 1 2 2 2 2 3 3 3 3 3 4 4 5 5 5 5 4 4 3 3 2 2 1 -1 -2 -4 -7 -9 -10 -12 -11 -11 -14 -14 -12 -10 -8 -5 -4 -4 -4 -4 -4 -4 -4 -4 -4 -4 -3 -3 -3 -3 -3 -3 -3 -3 -3
-2 -1 -1 -0 -1 -1 -1 -0 0 1 1 1 1 1 1 2 2 2 2 2 2 2 2 1 2 2 3 4 5 5 5 5 4 4 4 3 2 1 -0 -2 -4 -6 -8 -9 -10 -12 -13 -14 -15 -15 -15 -15 -12 -6 -4 -4 -4 -4 -4 -4 -4 -4 -4 -4 -3 -3 -3 -3 -3 -3 -3 -3 -3 -3
-5 -5 -5 -4 -4 -4 -3 -2 -1 -0 1 1 2 2 2 3 3 2 2 2 1 0 -0 0 2 3 3 4 5 4 4 4 4 4 3 2 1 -0 -2 -5 -7 -9 -9 -10 -11 -12 -13 -14 -14 -13 -14 -15 -10 -5 -3 -4 -4 -4 -4 -4 -4 -4 -4 -3 -3 -3 -3 -3 -3 -3 -4 -3 -3 -3
-8 -7 -7 -7 -7 -7 -7 -6 -6 -5 -4 -3 -2 -1 1 1 2 2 3 3 2 1 1 2 3 3 3 4 5 4 4 4 3 3 2 1 -0 -2 -4 -7 -8 -9 -10 -10 -10 -10 -11 -11 -12 -13 -15 -12 -6 -3 -3 -4 -4 -4 -4 -4 -4 -4 -4 -3 -3 -3 -3 -3 -3 -4 -4 -3 -3 -3
-9 -10 -11 -11 -10 -10 -10 -10 -9 -9 -8 -8 -7 -6 -5 -4 -2 1 3 3 3 3 3 4 4 2 2 4 4 3 3 3 2 1 0 -1 -2 -4 -6 -8 -8 -8 -7 -7 -7 -8 -8 -10 -10 -12 -14 -9 -4 -3 -4 -4 -4 -4 -5 -4 -4 -4 -3 -3 -3 -4 -4 -4 -4 -3 -3 -3 -3 -4
-12 -12 -10 -8 -6 -5 -5 -6 -6 -4 -3 -5 -6 -6 -4 -3 -1 1 2 2 2 3 3 3 3 2 2 3 4 3 2 2 1 -0 -1 -3 -4 -5 -7 -7 -7 -7 -7 -7 -7 -8 -10 -11 -12 -14 -13 -7 -4 -3 -4 -4 -4 -5 -5 -4 -4 -4 -4 -4 -4 -4 -4 -3 -3 -3 -3 -3 -4 -4
-12 -10 -6 -3 -2 -2 -2 -2 -3 -2 -0 -1 -3 -4 -3 -1 0 1 1 2 2 2 2 2 3 3 3 3 3 2 2 1 -0 -2 -3 -4 -5 -5 -6 -6 -6 -7 -8 -8 -8 -9 -10 -11 -10 -10 -9 -6 -4 -3 -3 -3 -4 -5 -4 -4 -4 -4 -4 -4 -4 -4 -3 -3 -3 -3 -3 -4 -4 -4
-10 -7 -4 -2 -2 -2 -2 -2 -2 -2 -1 -1 -1 -2 -2 -1 1 1 2 2 3 2 2 2 3 3 3 3 2 1 0 -1 -2 -3 -4 -5 -5 -5 -6 -6 -6 -7 -8 -10 -9 -8 -7 -7 -6 -5 -5 -5 -4 -3 -3 -3 -4 -4 -4 -4 -4 -4 -4 -4 -4 -4 -3 -3 -3 -4 -4 -4 -4 -4
-7 -4 -3 -3 -2 -2 -2 -2 -2 -2 -2 -2 -1 -0 -0 -0 1 2 2 2 2 2 2 2 2 2 2 1 -0 -1 -2 -3 -4 -4 -4 -4 -3 -3 -4 -5 -6 -7 -9 -11 -10 -7 -5 -5 -5 -4 -5 -5 -4 -3 -3 -3 -4 -4 -4 -4 -4 -4 -4 -4 -3 -3 -3 -3 -4 -4 -4 -4 -4 -4
-4 -3 -3 -3 -3 -2 -2 -2 -2 -2 -2 -2 -1 -1 -0 -0 0 1 1 2 2 2 2 2 2 1 1 0 -1 -2 -2 -3 -3 -3 -2 -2 -2 -3 -5 -6 -9 -10 -11 -9 -7 -5 -5 -5 -5 -5 -5 -5 -5 -4 -3 -3 -4 -5 -4 -4 -4 -4 -4 -3 -3 -3 -3 -4 -4 -4 -4 -4 -5 -5
-3 -3 -3 -2 -3 -3 -2 -2 -2 -2 -2 -2 -2 -1 -1 -0 -0 0 1 1 1 1 1 1 1 0 -0 -0 -1 -1 -1 -2 -2 -2 -2 -3 -4 -5 -7 -8 -9 -9 -9 -7 -5 -5 -5 -5 -5 -5 -4 -4 -5 -5 -4 -4 -5 -5 -4 -4 -4 -4 -4 -4 -3 -3 -4 -4 -4 -4 -4 -4 -5 -5
-2 -2 -2 -2 -2 -3 -2 -2 -2 -2 -2 -2 -2 -2 -1 -1 -0 0 0 0 1 0 0 -0 -0 -0 -1 -1 -2 -2 -2 -2 -3 -3 -3 -5 -6 -7 -7 -8 -8 -6 -6 -6 -6 -6 -5 -4 -4 -4 -4 -4 -4 -5 -4 -4 -4 -4 -4 -4 -4 -4 -3 -3 -4 -4 -4 -4 -4 -4 -4 -5 -5 -5
-2 -2 -2 -2 -2 -2 -1 -1 -1 -1 -1 -1 -1 -2 -2 -1 -0 -0 -0 -0 -1 -1 -1 -1 -2 -2 -2 -2 -3 -3 -3 -3 -3 -4 -5 -7 -7 -7 -8 -9 -8 -6 -5 -6 -6 -6 -5 -4 -4 -4 -4 -3 -3 -3 -4 -4 -4 -4 -4 -5 -5 -4 -4 -4 -4 -4 -4 -4 -4 -4 -5 -5 -5 -5
-2 -2 -2 -2 -2 -1 -1 -1 -1 -1 -1 -1 -1 -1 -1 -1 -1 -1 -0 -1 -2 -2 -1 -2 -2 -3 -3 -3 -3 -3 -3 -3 -4 -5 -6 -6 -7 -7 -8 -9 -7 -6 -6 -6 -6 -5 -5 -5 -4 -4 -4 -4 -4 -4 -4 -4 -4 -4 -4 -4 -5 -5 -5 -5 -4 -4 -4 -4 -4 -5 -5 -5 -5 -5
-2 -2 -2 -2 -1 -1 -2 -2 -2 -2 -1 -1 -1 -1 -1 -1 -1 -1 -1 -2 -3 -2 -2 -3 -3 -3 -3 -3 -3 -3 -3 -4 -5 -5 -6 -6 -7 -8 -9 -9 -8 -6 -5 -6 -5 -5 -5 -5 -4 -4 -5 -5 -5 -5 -5 -4 -4 -5 -5 -5 -5 -5 -6 -6 -5 -5 -5 -5 -5 -5 -5 -5 -5 -5
-3 -3 -2 -2 -2 -2 -2 -2 -2 -2 -1 -1 -1 -2 -2 -2 -1 -1 -1 -2 -3 -3 -3 -3 -3 -2 -2 -3 -3 -4 -4 -5 -5 -6 -6 -7 -7 -7 -7 -7 -6 -5 -5 -5 -5 -5 -5 -5 -4 -4 -4 -5 -4 -4 -4 -4 -4 -5 -5 -5 -4 -4 -5 -6 -6 -6 -6 -6 -6 -5 -5 -5 -5 -5
-3 -3 -3 -3 -2 -2 -2 -2 -2 -2 -1 -1 -1 -1 -1 -2 -2 -2 -2 -2 -3 -3 -3 -2 -3 -3 -4 -5 -5 -6 -6 -6 -6 -7 -7 -7 -6 -6 -6 -6 -6 -5 -5 -6 -6 -5 -5 -4 -4 -4 -4 -4 -4 -4 -4 -5 -5 -4 -5 -5 -4 -4 -4 -5 -5 -5 -6 -6 -6 -6 -6 -6 -5 -5
-3 -4 -4 -4 -3 -3 -3 -2 -2 -2 -2 -1 -1 -1 -1 -2 -2 -2 -2 -3 -3 -2 -2 -3 -4 -5 -5 -6 -6 -6 -6 -7 -7 -7 -7 -7 -6 -6 -6 -6 -6 -6 -6 -6 -6 -5 -5 -5 -5 -5 -5 -4 -4 -5 -4 -5 -4 -4 -4 -5 -4 -4 -4 -4 -4 -5 -5 -5 -5 -5 -6 -6 -6 -6
-5 -5 -5 -5 -5 -4 -3 -3 -2 -2 -2 -1 -1 -1 -2 -2 -2 -2 -2 -2 -2 -3 -4 -5 -5 -5 -5 -6 -6 -6 -7 -7 -7 -7 -7 -7 -7 -7 -6 -6 -6 -5 -6 -6 -6 -5 -5 -5 -5 -5 -5 -5 -4 -4 -4 -4 -4 -4 -4 -4 -4 -4 -4 -4 -5 -5 -5 -5 -5 -4 -5 -6 -7 -7
Wind_Speed
8 8 8 7 7 7 7 8 9 8 9 9 8 6 5 7 9 11 11 11 10 10 8 7 8 9 8 8 9 8 7 6 7 7 9 11 12 12 11 11 12 12 12 11 11 11 10 10 10 10 10 10 10 11 11 11 11 11 11 11 11 11 11 11 11 12 12 12 13 14 14 14 14 14
9 9 9 8 7 8 9 10 11 11 11 9 7 6 4 4 7 9 10 10 10 10 8 6 8 9 8 8 8 8 7 6 8 10 10 10 12 12 12 11 10 9 9 8 8 9 9 9 9 10 10 11 12 12 13 13 14 13 13 13 12 12 13 13 13 14 15 15 16 16 16 16 15 15
9 10 10 9 8 10 11 13 15 15 13 10 7 7 6 6 6 7 8 9 9 9 8 7 9 9 8 8 7 7 6 7 9 11 11 11 12 12 11 9 8 7 6 6 6 7 8 9 10 10 11 12 13 14 15 15 16 16 15 14 14 14 14 14 15 16 17 18 18 19 19 18 18 17
10 10 11 10 10 11 13 15 17 15 14 11 9 8 8 8 8 6 7 8 8 8 8 8 9 9 9 8 7 7 7 8 11 12 13 13 12 10 9 7 5 4 3 3 5 6 7 8 9 10 11 12 13 14 15 17 17 17 16 15 14 14 14 15 16 16 17 18 19 19 20 20 20 19
11 10 10 10 11 13 14 15 15 14 14 12 9 8 8 8 7 6 6 8 9 8 8 8 9 9 9 8 8 9 9 10 12 13 14 14 11 9 7 5 3 1 1 2 2 4 5 7 8 9 10 12 13 14 16 17 18 18 16 15 14 14 14 15 16 16 17 18 19 20 21 21 22 22
12 12 11 11 13 15 16 14 13 12 11 10 8 8 7 7 6 6 6 7 8 8 8 9 9 9 9 9 10 11 9 10 13 14 15 14 11 9 8 7 6 6 5 5 4 3 5 7 8 10 11 12 13 14 16 17 18 18 16 15 14 14 14 15 15 16 17 18 19 20 21 22 22 22
14 13 12 13 16 17 16 13 11 10 10 8 7 7 6 6 5 5 5 6 7 8 8 9 10 10 10 11 12 12 10 11 13 14 15 14 12 11 10 8 10 11 8 7 6 5 6 7 9 10 12 13 14 15 17 18 19 18 16 15 15 15 15 15 16 17 18 18 19 20 20 21 21 21
13 14 14 15 16 15 14 12 10 9 9 7 6 6 5 4 4 4 5 5 6 8 9 10 10 10 11 11 13 14 13 13 14 14 15 14 13 13 11 9 12 14 10 8 8 7 8 9 10 12 13 14 15 16 17 19 19 18 17 15 15 15 15 16 17 18 19 19 20 21 21 21 21 22
11 12 12 12 12 11 10 9 8 8 7 6 5 4 4 3 4 4 4 6 7 8 10 11 12 12 11 12 13 15 15 14 15 15 15 15 14 14 13 12 14 15 12 11 11 10 10 11 12 14 15 16 17 17 18 20 20 19 17 16 16 16 17 18 19 19 20 21 22 22 23 23 23 23
9 9 9 9 9 8 7 7 7 6 6 6 5 5 5 4 5 5 4 6 8 10 10 11 13 13 13 13 14 15 16 16 16 16 16 16 15 15 15 14 15 17 15 13 13 13 13 14 14 16 16 17 18 19 20 21 21 19 18 17 17 17 18 18 19 20 21 22 22 23 23 23 23 24
9 8 8 8 7 6 6 5 6 5 5 5 5 5 5 5 6 6 5 6 7 9 10 12 13 13 14 15 14 15 16 16 16 16 16 17 16 17 17 16 16 19 17 15 15 16 16 17 17 17 18 19 19 20 22 22 22 20 18 18 18 18 18 19 20 21 22 22 22 22 22 22 21 22
9 8 7 7 6 6 6 6 6 5 5 4 4 5 5 5 6 6 6 6 7 8 10 11 12 13 13 15 14 14 16 17 17 17 17 17 17 17 19 18 18 20 20 18 18 18 18 18 19 19 20 21 21 21 23 24 22 20 18 18 19 19 19 21 21 22 22 22 22 22 22 23 23 23
7 7 7 7 7 7 7 7 7 7 7 6 4 5 5 5 6 6 6 7 8 9 10 11 12 13 14 15 15 16 18 18 18 18 18 18 17 17 18 18 19 22 22 19 19 21 20 19 19 19 19 22 23 22 24 25 21 20 20 19 20 20 21 22 23 23 23 23 23 24 24 25 25 25
7 7 7 7 8 8 8 8 8 8 8 7 6 6 6 6 6 6 7 8 9 10 11 11 12 14 15 16 16 18 19 19 18 17 18 19 18 17 18 19 22 24 23 19 17 18 20 19 16 14 16 22 25 22 24 26 22 20 21 20 21 22 22 23 23 23 23 24 24 24 25 25 26 26
7 8 8 9 9 9 10 10 10 9 9 8 8 8 8 8 8 8 8 9 9 10 11 11 12 14 16 16 16 17 18 19 19 19 20 20 20 20 20 20 23 26 25 23 19 16 20 22 16 12 15 22 25 22 23 24 22 21 21 21 21 22 22 23 23 23 24 24 25 25 25 25 25 25
7 8 8 10 10 10 10 10 10 10 10 10 10 11 11 11 11 11 11 11 10 10 10 11 12 13 15 16 16 17 18 18 19 20 21 21 21 22 23 22 22 24 24 25 21 18 20 22 17 14 17 22 25 25 23 22 21 21 21 21 22 22 22 23 23 24 25 25 26 26 26 26 26 26
9 8 8 8 10 10 11 11 10 11 12 13 13 14 14 14 14 14 14 14 13 13 12 13 14 15 15 16 17 17 18 19 20 21 23 24 23 24 25 23 23 24 25 25 22 19 20 21 17 15 18 24 27 25 22 20 20 21 21 21 22 22 22 23 24 25 26 26 27 27 27 28 28 27
12 12 10 9 8 10 12 13 12 12 14 15 16 16 16 16 16 16 16 15 15 15 15 16 17 17 18 18 20 20 19 20 23 23 24 26 26 28 29 28 27 29 29 25 21 17 17 20 18 13 15 23 26 25 23 22 21 20 21 21 21 22 23 24 25 25 26 26 27 28 28 28 28 28
14 14 14 13 11 12 14 15 15 14 15 17 18 18 18 18 18 18 17 17 16 17 17 17 18 19 19 20 21 21 21 23 25 25 24 25 26 28 30 30 30 31 31 27 21 16 14 18 17 11 11 17 19 19 22 25 23 20 21 21 21 22 23 23 24 25 25 26 27 27 28 28 28 28
16 17 17 16 16 16 17 18 17 17 18 19 20 19 18 18 18 18 20 19 18 18 19 19 20 20 21 22 22 22 23 25 26 26 26 27 28 29 28 29 29 29 28 25 21 18 15 15 18 14 11 14 15 13 18 24 23 20 20 21 21 22 22 23 24 25 25 25 26 26 26 27 27 27
17 18 19 18 18 18 19 20 19 19 20 21 21 20 18 17 17 18 21 22 19 18 19 20 21 22 22 23 24 24 24 25 26 26 26 27 30 30 27 25 24 24 24 22 19 17 13 13 18 17 13 14 17 15 15 20 22 20 20 21 21 20 21 21 23 24 25 25 24 24 24 24 24 23
17 19 21 20 19 20 21 22 22 22 21 21 22 21 19 19 18 17 20 22 19 17 19 19 19 20 20 20 21 21 21 22 23 25 26 27 28 28 27 23 20 19 20 21 20 17 13 12 17 19 15 14 17 14 13 18 22 22 21 22 21 21 22 22 22 23 23 22 20 20 21 21 21 19
17 18 20 21 20 21 22 23 22 23 22 21 22 21 19 20 18 16 17 20 18 16 17 17 17 17 17 16 17 17 18 20 20 23 27 26 23 22 20 18 15 12 14 18 18 14 11 11 13 14 12 10 10 12 13 16 19 19 20 19 19 21 23 22 20 20 21 20 18 18 18 18 18 16
12 12 14 15 15 15 17 18 18 19 19 18 19 19 19 19 17 14 15 17 16 14 14 16 17 16 16 16 16 17 19 20 20 21 23 22 20 19 15 13 12 11 13 17 16 12 11 11 11 11 11 10 9 10 12 13 14 17 19 17 15 15 18 17 16 17 19 20 19 18 18 18 17 16
9 10 11 12 12 12 13 15 15 16 17 16 17 17 17 17 17 16 15 17 17 16 15 16 17 16 15 16 18 19 20 22 22 23 21 19 19 17 14 13 13 12 16 19 17 14 12 10 10 11 11 11 10 10 11 12 12 14 16 15 12 10 11 12 12 13 15 15 16 16 18 19 19 17
11 11 12 13 13 13 14 15 15 16 17 17 17 18 18 18 18 18 17 18 18 18 18 18 18 17 17 18 19 20 22 23 24 24 22 21 20 17 16 17 16 15 17 18 16 14 12 10 11 12 11 11 11 11 12 11 10 10 11 11 9 8 10 11 12 12 11 11 11 13 15 18 18 18
15 15 16 17 18 18 19 20 20 20 20 20 20 20 20 21 21 20 21 20 19 19 20 20 20 19 18 19 20 20 20 21 23 23 21 20 19 18 20 21 20 18 17 15 13 12 11 10 12 13 11 12 12 11 10 9 8 9 9 8 7 9 10 10 10 10 10 10 10 12 13 14 15 16
18 19 20 21 22 23 23 23 23 23 23 23 23 22 22 22 22 22 22 22 21 21 21 22 22 21 20 20 19 19 20 22 23 22 19 18 19 20 20 20 18 17 16 13 11 11 9 9 12 12 12 12 12 9 9 9 9 9 8 7 8 9 9 9 9 9 9 10 10 11 12 12 12 14
18 19 20 21 21 22 22 22 22 22 22 22 22 23 23 22 23 23 23 22 22 22 22 22 20 18 18 19 20 21 22 21 21 20 19 20 21 20 19 17 16 14 13 11 10 9 8 8 10 12 14 14 11 9 9 10 10 9 8 8 9 9 8 8 8 8 9 10 10 10 11 12 12 14
18 18 18 19 20 20 20 20 20 20 21 21 21 22 21 21 22 21 20 20 21 21 19 17 14 13 16 20 22 22 21 19 20 21 22 22 21 18 16 15 14 12 11 10 9 9 9 9 10 12 14 12 9 9 10 11 10 9 8 9 9 9 8 7 7 8 9 10 10 10 10 11 12 13
19 19 20 20 21 21 21 21 21 21 21 21 21 21 21 21 20 16 14 15 16 16 16 14 14 16 19 23 24 22 20 22 24 23 21 20 18 16 15 14 13 12 11 11 9 9 9 10 10 13 14 11 8 9 10 11 11 10 9 9 8 7 7 7 7 8 9 10 11 10 10 11 12 12
19 19 18 17 16 16 16 16 15 15 15 16 17 17 17 17 15 13 13 14 14 15 16 15 16 19 22 24 25 25 24 26 26 24 21 18 16 15 13 11 10 10 10 10 10 9 10 10 11 13 12 9 8 10 10 10 10 9 9 9 7 7 7 7 7 8 9 10 11 11 11 11 11 10
17 14 11 10 9 9 9 10 9 9 10 12 14 14 14 13 11 11 13 12 12 14 15 14 16 20 24 26 29 29 28 28 27 24 20 16 13 12 10 8 7 7 6 7 10 11 11 11 12 12 11 9 8 8 7 7 8 8 8 7 7 6 7 7 7 9 9 10 11 11 11 10 10 10
12 9 7 7 7 8 8 9 9 8 9 10 11 13 14 13 10 9 10 10 12 15 16 15 17 22 25 28 31 31 29 27 23 20 16 13 12 11 9 7 6 6 6 6 8 8 8 9 8 9 11 13 12 9 6 5 7 8 7 6 6 6 7 7 7 8 9 9 10 11 11 11 10 10
6 6 6 7 8 8 9 10 10 9 10 10 10 11 11 11 9 7 7 8 12 17 18 18 20 24 28 30 30 27 23 19 16 14 12 11 11 10 8 6 5 6 7 8 7 5 6 6 6 6 9 11 12 12 11 8 7 7 7 6 6 6 6 7 7 8 9 9 9 10 11 11 10 8
5 5 7 8 8 9 10 10 11 11 10 11 11 10 9 9 8 7 7 9 13 16 18 19 21 24 26 25 21 17 15 14 13 12 11 11 10 8 6 5 5 6 7 6 5 4 5 6 6 7 8 8 9 12 13 11 9 8 7 6 5 5 6 7 7 8 9 9 8 9 11 11 10 8
5 6 7 7 8 9 10 10 11 11 11 12 12 11 10 9 9 9 10 12 12 12 12 14 17 19 18 16 14 14 14 14 13 12 11 10 8 5 3 3 5 6 5 3 4 6 6 6 6 7 7 7 7 8 8 9 10 9 6 4 5 6 6 7 7 8 8 8 8 9 10 10 9 8
5 6 7 7 8 9 10 10 11 10 11 11 11 11 10 8 8 10 11 10 8 6 5 6 10 12 13 12 11 13 13 12 12 11 10 8 6 3 3 4 4 4 3 4 6 7 6 6 6 7 6 7 6 6 6 7 9 9 7 5 5 5 6 7 7 8 8 8 9 9 9 9 8 8
5 5 6 7 7 8 9 9 9 9 9 9 8 8 8 8 8 9 8 6 3 2 3 7 9 11 13 12 11 12 12 12 11 10 9 7 5 3 3 4 3 3 4 6 6 6 6 6 7 6 6 6 6 7 8 8 8 9 9 7 5 5 6 7 7 8 8 8 9 9 8 8 9 10
7 7 6 7 7 7 7 8 8 8 7 7 7 8 8 7 7 9 9 5 3 5 8 11 11 12 14 14 12 12 12 11 10 9 7 5 4 4 4 4 3 3 5 6 6 6 6 7 8 8 7 7 8 9 9 8 7 7 7 8 7 6 7 8 7 7 8 8 9 9 9 8 9 9
9 8 8 8 7 7 8 8 8 8 7 6 6 7 7 7 8 9 9 7 7 9 12 12 12 12 13 12 11 10 10 9 8 6 5 4 4 4 5 4 2 2 5 6 6 6 6 8 10 11 9 9 8 7 6 7 7 6 6 9 9 9 9 10 9 7 6 7 8 8 9 9 8 7
11 10 10 9 8 8 9 9 9 8 7 6 5 6 6 6 6 7 7 8 9 11 11 11 12 11 10 7 6 5 4 3 3 3 3 3 2 3 3 2 1 3 5 5 6 6 7 8 8 8 7 6 6 7 7 8 8 7 6 7 9 10 11 12 10 7 6 7 7 7 7 7 7 7
12 12 11 11 10 9 10 10 9 8 7 6 6 6 5 3 3 4 6 9 10 10 10 9 8 6 4 3 2 1 1 1 2 2 2 1 1 2 3 3 4 4 4 5 6 6 6 6 6 6 6 6 7 8 10 9 9 8 7 6 7 8 9 11 11 10 8 8 9 10 9 8 8 8
12 13 14 14 13 12 12 11 9 8 7 6 6 5 3 1 0 3 7 10 10 9 8 6 5 5 4 3 1 0 1 2 1 1 0 1 2 3 4 4 5 4 4 5 5 6 6 6 6 6 6 7 7 8 9 9 9 8 7 6 6 6 8 10 11 11 11 10 9 10 12 12 10 8
13 14 16 17 16 16 14 12 10 8 7 7 6 4 3 3 2 3 7 8 7 6 6 7 7 5 3 2 2 2 2 2 1 0 1 2 3 4 4 4 5 5 5 5 5 5 6 6 6 6 6 7 7 8 8 8 8 7 6 6 6 6 7 8 9 9 10 10 9 10 12 14 12 9
Wind_Direction
169 169 164 159 159 156 153 155 155 152 148 148 148 146 152 156 158 160 156 149 151 152 147 148 152 153 152 151 143 139 140 138 133 136 138 135 131 126 120 113 108 103 98 95 92 89 86 83 79 74 70 66 62 58 53 50 47 45 42 40 38 36 34 31 27 24 23 20 18 16 13 10 5 359
163 162 158 156 158 153 148 149 146 140 139 139 132 124 125 145 158 162 155 146 149 154 149 151 161 161 158 156 153 153 158 154 147 150 151 146 139 131 125 121 116 110 104 98 92 85 78 71 65 60 54 50 46 42 39 36 34 32 32 31 29 28 26 23 20 18 16 15 13 11 10 8 6 3
159 158 155 154 156 152 146 142 137 133 133 131 119 107 101 110 129 147 153 145 146 155 153 153 164 168 165 165 170 172 171 166 160 161 161 154 145 139 136 133 124 116 109 98 84 73 63 53 46 42 37 34 32 29 26 24 22 22 22 22 21 20 18 16 14 12 10 8 6 4 3 1 360 359
152 151 151 152 153 148 141 139 137 134 134 131 120 109 100 103 109 120 145 146 143 154 161 159 165 173 173 175 182 182 180 175 169 169 170 162 155 154 154 149 139 125 108 90 72 58 49 39 31 26 23 20 19 17 16 14 13 13 13 13 13 12 11 10 8 6 3 1 359 357 356 354 352 351
142 141 144 150 149 143 140 140 138 136 136 132 127 121 111 109 110 107 123 135 141 158 168 164 171 182 180 175 179 183 187 183 175 175 179 175 169 172 180 185 192 226 318 337 23 34 27 20 13 9 7 6 5 5 4 4 3 3 4 5 5 4 4 3 0 358 356 354 353 352 350 349 347 345
133 138 143 147 144 142 143 143 141 141 140 134 133 134 126 124 123 116 121 132 145 163 172 169 180 194 185 175 182 191 197 193 183 183 191 191 185 190 205 228 256 276 285 290 313 349 354 354 352 351 352 350 351 352 352 353 354 354 355 355 356 356 355 354 352 351 350 348 346 346 344 343 341 340
128 132 136 139 142 145 146 144 143 145 145 142 144 145 142 144 144 139 144 151 156 166 177 179 187 200 194 184 189 197 203 201 190 189 201 203 199 207 216 225 253 269 271 273 291 314 323 329 333 334 336 336 337 340 340 342 344 345 346 347 347 347 346 345 344 342 341 340 339 338 337 336 334 333
126 126 128 134 141 147 147 145 148 150 149 153 155 155 156 163 173 177 180 185 179 177 185 186 190 203 204 194 192 197 201 202 196 194 204 209 208 219 225 221 240 258 265 269 280 297 306 313 318 318 321 322 324 327 329 332 335 336 337 338 338 339 338 337 337 336 334 333 332 331 330 329 328 326
126 127 129 133 139 144 144 144 151 155 157 163 167 174 182 187 204 211 204 205 205 201 200 194 193 201 204 198 197 199 199 200 202 202 208 214 214 221 227 224 235 252 262 269 278 290 296 301 305 306 308 311 314 317 319 322 327 328 329 331 332 333 333 332 331 330 328 327 326 325 324 323 322 321
129 129 134 140 140 144 150 156 164 170 179 189 193 204 212 211 223 234 227 219 215 215 214 205 198 200 201 200 200 203 203 203 207 208 211 218 219 221 225 224 236 253 262 267 276 283 287 292 294 295 298 301 304 307 310 315 320 322 324 325 326 327 325 325 323 321 320 319 317 317 316 316 315 314
144 141 147 152 150 154 163 172 184 193 204 212 214 219 223 223 230 237 236 231 223 221 221 214 207 206 205 204 205 208 209 209 212 214 215 220 221 222 226 225 234 253 263 267 273 278 282 287 289 288 292 294 296 299 303 309 314 316 317 318 319 319 318 316 315 313 312 311 310 309 308 307 305 303
155 157 164 167 169 178 181 187 197 203 210 217 221 228 233 232 237 241 241 239 234 230 229 222 218 215 211 210 210 211 210 212 218 219 219 223 223 224 230 230 233 250 264 267 269 272 277 281 283 284 285 286 288 292 298 304 309 310 312 313 314 314 312 311 309 307 307 307 307 308 307 307 306 305
164 166 177 186 192 200 204 207 212 215 214 211 210 231 246 248 248 250 248 248 247 241 237 232 229 226 222 218 214 212 213 219 224 222 221 226 227 229 234 231 231 245 257 262 263 269 274 274 276 280 281 282 286 290 295 301 304 306 308 310 310 310 308 306 305 305 306 307 308 308 309 308 308 308
193 193 200 210 214 218 221 222 224 226 225 225 228 242 252 252 250 252 251 252 251 247 246 242 238 236 235 230 223 220 224 233 234 225 224 228 229 230 230 228 236 247 251 246 243 255 267 266 263 262 265 276 286 291 294 300 305 305 305 306 306 305 304 303 303 305 306 307 308 307 307 306 305 305
211 214 217 223 225 226 227 226 227 228 231 237 243 248 250 249 249 252 256 257 254 253 253 250 245 243 243 242 238 233 235 240 237 230 230 230 229 231 228 226 242 254 254 246 234 234 255 260 250 235 245 266 281 287 289 296 301 301 301 303 303 303 302 302 304 306 307 308 308 307 306 305 305 304
209 218 225 229 228 227 227 229 233 235 238 243 247 251 253 252 252 253 256 257 255 256 257 255 252 250 250 252 249 245 245 246 240 236 237 236 233 235 234 232 244 257 259 252 238 228 247 259 250 233 245 264 277 284 287 292 295 296 299 301 302 303 303 305 308 309 310 310 309 308 307 306 306 305
213 216 223 233 238 239 236 237 243 248 251 253 254 257 259 258 259 260 261 260 258 258 259 258 256 254 256 258 254 251 254 251 247 246 246 244 241 240 241 239 243 253 257 252 241 233 244 256 253 243 255 269 278 284 287 290 293 297 301 304 305 307 308 309 310 310 309 309 307 307 307 307 307 308
222 223 227 234 245 250 248 248 252 257 262 263 261 263 265 265 266 266 264 262 261 262 262 260 259 259 260 261 258 256 257 255 255 257 255 251 248 246 247 246 245 250 253 246 236 232 241 254 256 248 257 272 282 290 293 295 298 303 307 309 309 310 309 308 308 307 307 306 306 306 308 309 310 310
232 236 242 246 251 258 261 261 261 262 265 267 267 268 269 269 271 268 263 262 264 267 266 262 263 262 260 261 260 258 260 261 261 260 255 251 250 248 248 248 246 246 247 242 231 228 243 260 261 248 247 266 280 292 295 298 304 310 311 310 309 308 307 306 306 305 304 304 306 309 310 311 310 309
247 250 253 256 261 265 265 263 262 264 265 265 266 267 267 269 270 267 265 267 269 270 269 265 263 260 256 257 259 260 263 266 268 267 262 256 253 250 247 245 242 240 242 245 244 242 247 258 262 257 250 257 267 277 284 291 303 312 311 308 307 306 305 305 303 302 304 306 309 310 310 309 308 307
257 258 258 261 267 269 266 264 265 266 266 264 264 264 265 266 266 266 269 274 273 271 269 266 261 258 257 257 258 260 262 265 271 273 266 256 251 247 241 238 240 242 244 249 250 246 236 240 257 264 259 261 272 275 273 286 302 311 307 304 305 305 303 302 301 301 304 307 309 309 309 308 307 308
263 265 265 266 268 269 268 269 270 270 267 265 264 264 265 267 266 266 272 276 276 269 265 262 259 258 259 259 260 263 265 267 269 269 265 260 254 246 240 239 243 250 253 253 250 245 238 243 258 267 270 274 279 274 266 284 303 310 309 309 311 309 304 302 302 302 304 309 312 312 312 311 311 313
267 269 268 267 265 265 268 271 272 271 270 268 266 267 267 269 268 266 268 273 276 271 265 264 262 259 260 262 264 269 272 272 268 264 263 260 248 238 239 241 240 242 247 252 251 242 235 245 255 263 274 279 273 266 270 286 300 305 307 310 311 308 307 311 316 317 316 317 321 319 316 315 316 316
266 268 269 269 268 268 271 274 274 275 274 272 270 268 267 266 266 264 264 269 273 272 270 271 270 266 265 266 267 270 272 271 264 255 252 248 238 236 238 230 224 226 231 240 246 236 228 239 248 254 265 269 262 264 273 282 290 296 303 309 309 308 314 321 327 325 318 318 324 326 322 321 321 320
259 261 266 273 279 281 281 281 281 281 281 278 276 272 269 268 269 267 266 270 272 272 274 278 276 273 271 270 270 269 269 267 260 247 240 238 238 237 227 213 214 229 235 236 242 243 238 240 245 249 258 266 265 265 272 280 283 286 299 313 318 313 315 317 315 313 310 314 323 323 316 316 321 324
260 261 264 271 277 281 282 283 283 281 281 280 278 276 274 273 272 268 265 267 271 273 274 276 276 275 273 271 270 269 267 264 258 249 242 243 240 225 211 207 207 218 235 240 244 249 249 244 248 256 262 268 272 274 278 284 281 278 294 313 313 304 309 310 306 307 309 313 316 311 309 314 320 323
266 267 269 271 274 276 277 278 277 275 273 272 271 271 270 270 270 267 264 264 267 268 268 269 271 273 273 270 268 268 265 259 253 247 240 239 234 221 217 221 219 223 239 248 250 255 257 255 264 274 278 276 280 283 281 277 272 277 292 301 295 299 307 305 302 306 310 314 313 310 313 318 318 319
267 268 269 271 273 274 274 274 272 270 269 267 266 266 267 267 267 267 266 265 265 263 263 266 268 269 272 271 265 259 256 250 246 242 235 226 221 220 223 229 231 235 243 249 253 260 267 272 279 289 293 289 287 282 274 273 277 282 290 293 295 303 304 300 304 310 311 314 315 316 319 321 319 316
269 271 272 272 273 274 275 274 273 272 271 271 271 271 271 271 272 272 271 269 267 266 266 267 267 265 266 262 253 248 249 246 239 234 227 221 220 225 229 231 233 236 241 249 257 266 274 281 287 295 297 294 287 276 274 278 280 282 291 298 300 300 298 301 309 311 310 315 318 319 323 324 319 314
278 278 279 280 280 281 282 282 283 282 281 280 281 280 279 279 280 279 277 274 274 273 269 263 254 248 247 247 246 247 245 235 226 223 221 220 222 226 229 230 232 234 240 249 260 270 281 290 298 300 296 289 279 275 278 282 283 287 293 296 295 297 301 306 310 310 313 318 320 323 327 323 315 311
283 283 285 287 288 289 289 288 289 289 288 288 288 286 285 284 282 277 270 267 267 266 261 248 236 240 248 249 246 240 227 216 216 217 215 217 221 223 224 227 231 235 242 250 258 270 284 295 301 298 293 285 274 272 274 276 283 289 290 288 291 299 304 306 309 311 316 319 322 327 329 321 314 312
282 286 291 295 298 298 297 297 296 295 294 294 293 291 288 285 281 273 266 261 255 253 250 239 234 244 251 244 232 222 213 212 214 210 206 208 214 220 224 229 238 249 260 269 276 286 296 300 298 292 286 274 263 268 275 276 278 283 284 285 292 299 301 304 308 311 317 323 327 329 326 319 316 314
280 285 293 299 302 302 303 305 303 298 297 297 295 291 285 279 273 269 268 265 258 250 245 235 237 247 245 232 219 212 209 209 207 203 201 204 211 219 224 224 232 254 275 288 296 305 310 308 303 298 295 290 274 266 269 273 275 279 282 286 292 298 300 304 308 312 320 327 329 326 322 319 317 314
286 295 302 302 302 304 308 311 308 305 306 304 300 295 289 280 272 266 265 261 253 248 244 243 248 248 239 223 212 208 205 203 199 196 198 204 212 220 224 224 235 258 273 280 287 295 300 301 301 298 302 303 295 281 269 268 275 279 282 284 288 293 299 304 309 316 325 330 326 320 317 317 316 313
309 312 307 304 305 307 309 309 310 315 316 313 310 305 296 290 285 275 265 259 251 249 253 259 257 245 231 217 209 203 198 195 195 199 210 225 233 233 236 243 255 269 279 284 286 280 280 287 290 286 285 284 278 271 265 263 273 281 280 282 285 290 300 307 310 319 328 328 320 313 312 313 314 313
353 317 306 308 308 307 309 309 310 314 316 316 317 313 302 296 294 287 285 287 278 270 269 268 254 234 219 210 204 200 199 204 214 224 235 244 247 243 243 253 267 276 282 290 291 279 275 280 281 280 274 267 266 263 256 259 281 289 276 276 292 299 305 309 313 324 329 322 314 310 309 310 312 314
354 322 316 317 312 310 311 310 310 311 313 314 315 313 307 298 287 288 300 304 297 288 280 266 245 224 210 206 207 211 215 222 231 239 242 241 239 238 241 265 286 294 295 290 280 277 279 277 272 274 272 270 275 269 253 265 294 298 275 272 300 308 311 314 319 327 325 312 307 307 305 306 312 314
346 329 326 324 319 316 313 309 309 311 311 311 310 309 307 297 283 291 306 308 297 290 276 243 221 209 205 206 209 213 219 226 233 235 234 229 222 224 254 274 283 288 283 273 272 274 277 274 271 273 272 269 275 276 265 273 292 297 292 295 306 311 321 326 324 323 318 307 304 305 302 301 304 307
349 340 335 329 323 318 312 309 311 310 309 311 310 303 301 297 289 291 297 293 280 251 183 182 193 207 210 206 204 213 222 229 231 230 228 225 218 221 257 272 270 264 272 275 274 272 273 273 271 271 274 273 273 272 269 270 276 285 294 306 317 323 331 332 323 313 308 304 302 303 302 302 305 310
2 353 346 343 338 331 324 319 315 312 312 315 308 296 292 295 292 287 284 272 221 188 195 202 208 215 213 208 211 219 223 225 226 223 219 222 226 238 261 267 253 247 267 274 275 275 276 272 264 260 264 271 269 264 267 276 283 287 295 303 308 316 327 331 319 302 298 302 303 304 308 311 309 309
13 3 355 353 350 342 336 332 329 325 325 324 315 304 297 292 282 277 271 251 215 204 209 212 211 211 212 215 222 228 227 228 231 229 225 231 244 264 275 273 253 255 271 275 276 278 279 275 272 272 276 281 281 280 283 289 293 295 296 299 303 313 324 325 315 295 288 300 305 301 304 311 312 305
28 21 12 7 1 352 348 349 348 342 335 331 328 325 321 305 283 267 248 227 214 207 207 211 214 217 221 227 231 231 231 238 250 252 250 249 259 282 293 294 264 262 271 275 278 282 283 283 288 298 304 300 296 297 292 288 289 293 296 301 307 314 320 321 319 312 310 324 334 328 314 312 314 311
36 32 26 21 16 11 8 4 356 347 340 332 326 329 336 331 288 244 219 208 204 205 211 216 213 203 188 178 177 192 281 279 271 268 263 250 253 278 295 293 277 271 277 284 286 292 294 291 291 299 302 296 292 290 288 288 290 292 293 301 310 316 319 320 321 323 322 328 340 345 339 327 315 309
40 38 35 33 30 28 25 18 7 356 349 341 335 335 346 7 289 210 202 199 200 205 207 190 154 126 116 115 105 347 246 231 236 244 154 257 266 272 281 281 276 281 295 295 291 298 308 304 296 292 293 294 295 295 292 290 288 286 286 294 305 315 317 314 313 315 316 316 322 333 337 332 320 311
48 47 45 43 42 41 40 35 25 14 6 359 355 8 62 83 99 171 187 191 192 183 164 141 125 118 125 146 179 217 210 176 143 209 239 260 275 279 281 282 282 289 299 299 297 304 314 317 311 301 294 297 301 300 298 295 293 289 288 292 300 308 310 306 301 300 306 308 307 313 325 331 330 327
Height
1566 1566 1567 1569 1570 1571 1572 1573 1574 1574 1576 1577 1578 1578 1579 1579 1580 1581 1583 1585 1586 1588 1589 1589 1589 1590 1590 1590 1591 1591 1591 1591 1591 1592 1593 1593 1594 1594 1595 1595 1595 1595 1596 1596 1596 1596 1595 1595 1595 1595 1594 1594 1593 1593 1592 1591 1591 1590 1589 1588 1588 1587 1587 1586 1586 1585 1584 1584 1583 1582 1581 1580 1579 1578
1565 1566 1568 1569 1570 1571 1572 1572 1573 1574 1576 1577 1578 1578 1579 1579 1580 1581 1582 1584 1586 1587 1589 1590 1590 1590 1590 1591 1591 1591 1591 1591 1592 1592 1593 1593 1594 1595 1595 1596 1596 1596 1596 1596 1596 1596 1596 1595 1595 1595 1594 1594 1593 1593 1592 1591 1590 1589 1588 1588 1587 1586 1586 1585 1585 1584 1583 1583 1582 1581 1580 1579 1578 1577
1565 1566 1568 1569 1570 1570 1571 1572 1573 1574 1576 1577 1578 1579 1579 1580 1580 1581 1583 1584 1586 1587 1588 1590 1590 1590 1590 1591 1591 1591 1591 1592 1592 1592 1593 1594 1594 1595 1595 1596 1596 1596 1596 1596 1596 1596 1596 1596 1595 1595 1594 1594 1593 1592 1592 1591 1590 1589 1588 1587 1586 1585 1584 1583 1583 1582 1582 1581 1580 1579 1578 1577 1576 1576
1565 1566 1568 1569 1570 1570 1571 1572 1573 1574 1575 1577 1578 1579 1580 1580 1581 1582 1583 1584 1586 1587 1588 1589 1590 1590 1590 1591 1591 1591 1591 1592 1592 1593 1593 1593 1594 1595 1595 1595 1595 1595 1596 1596 1596 1596 1596 1596 1595 1595 1594 1594 1593 1592 1592 1591 1590 1588 1587 1586 1585 1584 1583 1582 1582 1581 1580 1580 1579 1578 1577 1576 1575 1574
1566 1567 1568 1569 1570 1571 1572 1573 1574 1575 1576 1577 1578 1579 1580 1581 1581 1582 1583 1584 1586 1587 1587 1589 1589 1589 1590 1591 1592 1591 1591 1591 1592 1593 1593 1593 1594 1594 1595 1595 1595 1595 1595 1595 1595 1595 1595 1595 1595 1594 1594 1593 1592 1592 1591 1590 1589 1588 1587 1585 1584 1583 1582 1581 1580 1580 1579 1578 1577 1576 1575 1574 1572 1571
1566 1568 1569 1569 1570 1571 1572 1574 1575 1576 1576 1577 1579 1579 1580 1581 1582 1582 1583 1584 1586 1586 1587 1588 1589 1589 1590 1591 1591 1591 1590 1591 1592 1593 1593 1593 1594 1594 1595 1594 1594 1594 1594 1594 1594 1594 1594 1594 1594 1593 1593 1592 1592 1591 1590 1589 1588 1587 1586 1584 1583 1582 1581 1580 1579 1578 1577 1576 1575 1574 1573 1572 1571 1570
1567 1567 1569 1569 1570 1572 1573 1574 1576 1576 1577 1578 1579 1580 1580 1581 1582 1582 1583 1584 1585 1586 1586 1587 1588 1588 1588 1590 1590 1590 1590 1590 1591 1592 1592 1592 1593 1594 1594 1594 1594 1593 1593 1593 1593 1593 1593 1593 1592 1592 1592 1591 1591 1590 1589 1588 1587 1586 1585 1583 1582 1581 1580 1579 1578 1577 1576 1575 1574 1573 1572 1571 1570 1568
1567 1568 1569 1570 1571 1572 1573 1575 1576 1576 1577 1578 1579 1580 1580 1581 1581 1582 1582 1583 1584 1585 1585 1586 1587 1587 1587 1588 1589 1589 1589 1589 1590 1592 1592 1592 1593 1593 1593 1594 1593 1591 1592 1592 1591 1591 1591 1591 1591 1591 1591 1590 1589 1589 1588 1587 1586 1585 1583 1582 1581 1580 1579 1578 1576 1575 1574 1573 1572 1571 1570 1569 1568 1566
1568 1569 1570 1571 1572 1573 1574 1575 1576 1576 1577 1578 1579 1580 1580 1581 1581 1581 1582 1583 1583 1584 1585 1585 1586 1586 1586 1587 1588 1588 1588 1589 1589 1590 1591 1591 1592 1592 1592 1592 1591 1590 1590 1590 1590 1590 1589 1589 1589 1589 1589 1589 1588 1587 1586 1585 1584 1583 1582 1580 1579 1578 1577 1576 1575 1574 1573 1572 1571 1569 1568 1567 1565 1564
1569 1570 1571 1571 1572 1573 1574 1575 1576 1577 1577 1578 1579 1579 1580 1581 1581 1581 1581 1582 1582 1583 1583 1584 1584 1585 1585 1585 1586 1586 1587 1587 1588 1588 1589 1589 1590 1590 1590 1590 1589 1588 1588 1588 1588 1588 1588 1588 1588 1588 1587 1587 1586 1586 1585 1584 1582 1581 1580 1579 1577 1576 1575 1574 1573 1572 1571 1570 1569 1568 1566 1565 1564 1562
1569 1570 1571 1571 1572 1573 1574 1575 1576 1576 1577 1577 1578 1579 1579 1580 1580 1580 1581 1581 1581 1582 1582 1583 1583 1583 1583 1584 1584 1585 1585 1586 1586 1586 1587 1587 1588 1588 1587 1588 1587 1586 1586 1586 1586 1586 1585 1585 1586 1585 1585 1585 1584 1584 1583 1582 1580 1579 1578 1577 1575 1575 1573 1572 1572 1570 1569 1568 1567 1566 1564 1563 1562 1560
1569 1570 1570 1571 1572 1572 1573 1574 1574 1575 1576 1577 1578 1578 1578 1579 1579 1579 1580 1580 1580 1581 1581 1581 1582 1582 1582 1582 1582 1583 1584 1584 1584 1584 1585 1585 1585 1585 1585 1585 1585 1584 1583 1584 1584 1583 1583 1583 1583 1583 1583 1582 1582 1582 1581 1580 1578 1577 1576 1574 1573 1572 1571 1570 1569 1568 1567 1565 1564 1562 1561 1559 1558 1556
1568 1569 1570 1570 1571 1571 1572 1572 1573 1574 1575 1576 1577 1577 1577 1577 1578 1578 1579 1579 1579 1579 1579 1580 1580 1580 1580 1580 1580 1581 1581 1581 1581 1582 1582 1582 1583 1584 1583 1583 1582 1581 1581 1581 1581 1580 1581 1581 1581 1581 1580 1579 1579 1579 1578 1577 1576 1575 1573 1572 1571 1570 1569 1567 1566 1565 1563 1562 1560 1559 1558 1556 1554 1553
1568 1569 1569 1569 1570 1570 1571 1571 1572 1573 1573 1574 1575 1575 1576 1576 1576 1577 1577 1577 1577 1577 1577 1578 1578 1578 1578 1578 1578 1578 1578 1578 1579 1580 1580 1580 1580 1581 1581 1580 1579 1579 1579 1579 1579 1579 1578 1579 1579 1579 1578 1576 1576 1577 1574 1573 1573 1572 1571 1570 1568 1567 1566 1565 1563 1562 1560 1559 1557 1556 1554 1553 1551 1550
1567 1568 1568 1568 1569 1569 1569 1570 1570 1571 1572 1572 1573 1573 1574 1574 1575 1575 1575 1575 1576 1576 1576 1576 1576 1576 1576 1576 1577 1577 1576 1576 1577 1577 1577 1577 1578 1578 1577 1577 1576 1576 1577 1577 1578 1578 1577 1577 1578 1578 1577 1574 1574 1574 1572 1571 1570 1569 1568 1567 1566 1564 1563 1561 1560 1558 1556 1555 1553 1552 1551 1549 1548 1546
1567 1567 1567 1567 1567 1567 1568 1568 1569 1569 1570 1570 1571 1571 1572 1572 1573 1573 1573 1573 1573 1574 1574 1574 1574 1574 1574 1574 1575 1575 1575 1575 1575 1575 1575 1575 1575 1574 1574 1574 1573 1573 1574 1575 1575 1576 1575 1574 1576 1576 1575 1573 1571 1571 1571 1569 1568 1567 1565 1564 1562 1561 1559 1558 1556 1554 1552 1551 1550 1548 1547 1545 1544 1542
1565 1566 1566 1566 1566 1566 1566 1567 1567 1568 1568 1568 1569 1569 1570 1570 1570 1571 1571 1571 1571 1571 1571 1571 1571 1571 1571 1571 1572 1572 1572 1572 1572 1572 1572 1572 1572 1571 1571 1572 1570 1569 1571 1572 1572 1573 1573 1572 1573 1574 1572 1570 1569 1568 1568 1567 1565 1564 1562 1561 1559 1558 1556 1554 1553 1551 1549 1548 1546 1544 1543 1542 1540 1539
1563 1563 1564 1565 1565 1565 1564 1565 1566 1566 1566 1566 1567 1567 1567 1567 1568 1568 1568 1568 1569 1569 1568 1568 1568 1568 1568 1568 1568 1569 1569 1569 1569 1569 1569 1568 1568 1568 1567 1567 1567 1566 1567 1568 1569 1571 1571 1570 1571 1572 1570 1567 1566 1565 1564 1563 1562 1561 1559 1557 1556 1555 1553 1551 1550 1548 1546 1545 1543 1541 1540 1538 1536 1535
1561 1561 1562 1563 1563 1563 1563 1563 1564 1564 1565 1565 1565 1565 1565 1565 1565 1565 1565 1565 1565 1565 1566 1565 1565 1565 1565 1564 1564 1565 1565 1565 1565 1565 1565 1565 1565 1564 1563 1563 1563 1563 1564 1564 1566 1569 1570 1569 1569 1570 1569 1566 1564 1563 1560 1558 1558 1557 1555 1554 1553 1552 1551 1549 1547 1545 1543 1541 1540 1538 1536 1534 1532 1531
1559 1560 1560 1561 1561 1561 1561 1561 1562 1562 1562 1562 1562 1562 1563 1563 1563 1562 1562 1562 1562 1562 1562 1562 1561 1561 1561 1561 1561 1561 1561 1561 1561 1561 1562 1562 1562 1561 1560 1559 1559 1560 1561 1562 1563 1565 1567 1567 1566 1567 1567 1564 1563 1562 1559 1555 1555 1555 1553 1552 1551 1549 1547 1545 1544 1542 1540 1539 1537 1535 1533 1531 1529 1528
1557 1557 1558 1559 1559 1559 1558 1558 1559 1560 1560 1560 1560 1560 1560 1560 1560 1559 1558 1558 1559 1558 1558 1557 1557 1557 1557 1557 1557 1557 1558 1558 1558 1557 1557 1558 1558 1558 1557 1557 1557 1558 1559 1560 1561 1562 1564 1564 1563 1563 1564 1562 1560 1560 1558 1554 1552 1552 1551 1549 1548 1547 1544 1543 1541 1539 1538 1537 1534 1532 1530 1527 1526 1525
1555 1555 1555 1556 1557 1556 1555 1555 1556 1557 1557 1557 1557 1557 1557 1557 1557 1557 1555 1555 1555 1555 1554 1553 1553 1553 1553 1553 1553 1554 1554 1554 1555 1554 1554 1553 1554 1555 1555 1555 1556 1556 1556 1557 1558 1560 1561 1561 1559 1560 1561 1560 1558 1556 1555 1552 1550 1549 1547 1545 1544 1543 1541 1540 1539 1537 1536 1534 1532 1529 1527 1525 1523 1522
1553 1553 1553 1553 1554 1553 1553 1553 1553 1553 1554 1554 1554 1554 1554 1554 1554 1554 1553 1552 1552 1551 1550 1550 1549 1549 1549 1549 1549 1549 1550 1550 1551 1551 1551 1551 1551 1552 1553 1553 1554 1555 1554 1553 1555 1558 1558 1558 1558 1558 1558 1558 1557 1554 1552 1551 1549 1546 1545 1543 1542 1539 1537 1537 1536 1535 1533 1532 1530 1528 1525 1523 1522 1521
1552 1551 1551 1550 1551 1551 1551 1550 1550 1550 1550 1550 1551 1551 1551 1551 1551 1552 1551 1549 1549 1548 1547 1546 1546 1545 1545 1545 1545 1545 1546 1547 1547 1547 1548 1549 1549 1550 1551 1551 1552 1553 1552 1550 1552 1555 1555 1555 1556 1556 1555 1556 1555 1553 1551 1549 1547 1545 1543 1542 1540 1538 1536 1535 1535 1534 1532 1530 1528 1526 1524 1522 1522 1520
1550 1550 1549 1548 1548 1549 1548 1548 1548 1548 1547 1548 1548 1548 1548 1548 1548 1548 1548 1547 1546 1545 1545 1544 1543 1543 1542 1542 1542 1542 1543 1543 1544 1544 1545 1546 1546 1547 1548 1550 1551 1551 1549 1548 1551 1552 1553 1553 1553 1553 1553 1552 1552 1551 1549 1547 1545 1543 1541 1539 1538 1538 1537 1536 1536 1534 1532 1529 1527 1525 1523 1521 1520 1519
1548 1547 1547 1546 1546 1546 1546 1546 1546 1545 1545 1545 1545 1545 1545 1545 1545 1545 1545 1544 1543 1542 1541 1541 1540 1540 1539 1539 1539 1539 1540 1540 1540 1541 1542 1542 1542 1544 1546 1546 1548 1547 1546 1547 1549 1550 1550 1551 1551 1550 1550 1549 1548 1547 1546 1545 1543 1541 1539 1538 1537 1536 1536 1535 1534 1533 1530 1527 1525 1524 1522 1520 1519 1518
1544 1544 1544 1543 1543 1543 1543 1543 1543 1543 1543 1543 1542 1542 1542 1542 1542 1541 1541 1540 1539 1538 1538 1538 1537 1536 1536 1536 1535 1536 1536 1537 1537 1538 1539 1539 1540 1541 1543 1543 1544 1544 1544 1545 1546 1547 1547 1548 1547 1547 1547 1546 1545 1545 1544 1543 1542 1540 1538 1537 1536 1535 1534 1533 1532 1529 1527 1525 1524 1522 1521 1519 1518 1516
1541 1540 1540 1540 1540 1540 1540 1539 1539 1539 1539 1539 1539 1539 1538 1538 1538 1538 1537 1536 1536 1535 1534 1534 1533 1533 1533 1532 1532 1532 1532 1533 1534 1535 1536 1537 1538 1539 1540 1541 1541 1542 1542 1542 1543 1544 1544 1544 1544 1544 1544 1543 1543 1542 1542 1541 1539 1538 1537 1535 1534 1533 1532 1530 1529 1527 1525 1523 1522 1521 1519 1517 1517 1516
1538 1537 1537 1537 1537 1536 1536 1536 1536 1536 1536 1536 1535 1535 1535 1534 1534 1534 1533 1533 1532 1532 1531 1530 1530 1530 1529 1529 1529 1529 1529 1530 1532 1533 1534 1535 1536 1537 1538 1538 1539 1539 1539 1540 1540 1541 1541 1541 1542 1541 1541 1541 1540 1540 1540 1539 1537 1536 1534 1533 1532 1531 1530 1528 1526 1525 1523 1522 1521 1519 1517 1516 1516 1515
1535 1535 1534 1534 1534 1534 1534 1533 1533 1533 1533 1533 1532 1532 1532 1531 1531 1530 1530 1529 1529 1529 1528 1528 1529 1529 1528 1527 1526 1527 1528 1529 1530 1531 1532 1533 1534 1535 1535 1536 1536 1537 1537 1537 1537 1538 1538 1538 1538 1538 1538 1538 1538 1538 1538 1537 1535 1534 1532 1531 1530 1529 1527 1525 1524 1523 1522 1521 1519 1517 1515 1515 1515 1515
1533 1532 1532 1532 1532 1531 1531 1531 1531 1531 1530 1530 1530 1529 1529 1528 1528 1527 1527 1527 1527 1526 1526 1527 1527 1525 1524 1524 1525 1526 1526 1527 1528 1529 1530 1531 1532 1532 1533 1534 1534 1534 1534 1535 1535 1535 1534 1534 1534 1535 1535 1535 1536 1536 1536 1535 1533 1532 1531 1530 1528 1526 1525 1524 1523 1522 1521 1520 1518 1515 1514 1514 1514 1513
1530 1530 1530 1531 1530 1530 1530 1529 1529 1529 1529 1528 1527 1527 1526 1526 1525 1525 1525 1524 1524 1524 1524 1524 1523 1521 1520 1521 1522 1523 1524 1524 1525 1526 1527 1528 1529 1531 1531 1532 1532 1532 1532 1532 1532 1531 1531 1531 1531 1531 1531 1532 1533 1533 1532 1532 1531 1531 1530 1528 1526 1524 1524 1523 1522 1521 1520 1518 1515 1514 1513 1513 1513 1512
1529 1529 1529 1530 1530 1530 1529 1529 1529 1529 1528 1527 1526 1525 1524 1524 1524 1523 1523 1522 1521 1521 1521 1521 1520 1518 1518 1518 1519 1519 1520 1520 1521 1523 1524 1526 1527 1529 1530 1530 1530 1530 1530 1530 1529 1529 1529 1528 1528 1528 1528 1528 1529 1530 1529 1529 1529 1529 1528 1526 1524 1523 1522 1521 1521 1520 1518 1516 1514 1513 1512 1512 1512 1511
1527 1528 1529 1529 1529 1529 1529 1529 1528 1527 1526 1525 1524 1523 1522 1522 1521 1521 1520 1520 1519 1518 1518 1518 1517 1516 1516 1516 1516 1516 1516 1518 1519 1520 1522 1524 1525 1526 1527 1528 1528 1528 1529 1529 1529 1528 1528 1528 1527 1527 1527 1526 1526 1526 1526 1527 1528 1527 1525 1524 1522 1522 1521 1520 1519 1518 1516 1514 1513 1512 1512 1512 1511 1509
1527 1528 1529 1529 1529 1528 1528 1528 1527 1526 1525 1524 1523 1522 1521 1520 1519 1518 1518 1517 1516 1516 1515 1515 1514 1514 1514 1514 1514 1515 1516 1518 1520 1520 1521 1522 1523 1524 1525 1526 1527 1527 1528 1528 1527 1528 1528 1527 1527 1528 1528 1527 1526 1524 1523 1524 1525 1525 1523 1522 1521 1520 1519 1518 1517 1516 1514 1513 1512 1512 1511 1511 1509 1507
1528 1529 1529 1528 1528 1528 1527 1527 1526 1525 1524 1523 1522 1521 1520 1520 1519 1517 1516 1515 1514 1514 1513 1513 1512 1513 1513 1514 1515 1517 1519 1521 1521 1521 1521 1521 1522 1523 1524 1525 1526 1527 1527 1527 1527 1527 1527 1527 1527 1527 1527 1526 1526 1524 1521 1521 1522 1522 1522 1520 1519 1518 1517 1517 1515 1514 1512 1512 1512 1512 1511 1509 1507 1505
1528 1529 1528 1528 1527 1527 1526 1526 1525 1524 1523 1522 1521 1520 1519 1518 1517 1516 1514 1513 1512 1512 1512 1512 1512 1513 1514 1516 1518 1519 1520 1521 1521 1520 1520 1521 1521 1523 1524 1525 1525 1526 1526 1527 1528 1528 1527 1526 1526 1526 1525 1524 1524 1523 1521 1519 1519 1519 1519 1518 1517 1517 1516 1515 1513 1512 1511 1511 1512 1511 1510 1508 1506 1505
1528 1528 1527 1527 1527 1526 1525 1524 1523 1522 1521 1520 1520 1519 1518 1516 1515 1514 1513 1513 1512 1512 1512 1513 1513 1514 1516 1517 1519 1520 1520 1520 1520 1519 1520 1520 1521 1523 1524 1524 1525 1526 1526 1527 1528 1527 1526 1525 1525 1525 1524 1522 1522 1521 1520 1520 1518 1517 1516 1516 1515 1515 1514 1512 1511 1511 1511 1511 1511 1510 1508 1506 1505 1504
1527 1527 1526 1526 1525 1525 1524 1523 1521 1520 1519 1518 1518 1517 1517 1515 1514 1513 1513 1513 1513 1513 1514 1515 1515 1515 1516 1518 1519 1519 1519 1519 1519 1519 1520 1521 1522 1522 1523 1524 1525 1525 1526 1527 1526 1526 1525 1524 1524 1523 1522 1521 1520 1519 1519 1519 1518 1516 1515 1514 1513 1513 1512 1511 1510 1510 1511 1511 1510 1509 1507 1505 1504 1502
1527 1526 1525 1524 1523 1522 1521 1520 1519 1518 1517 1517 1516 1516 1515 1514 1513 1513 1513 1514 1514 1515 1515 1515 1515 1516 1517 1518 1518 1519 1518 1519 1519 1520 1521 1521 1522 1522 1523 1523 1524 1525 1525 1525 1525 1525 1524 1524 1522 1521 1520 1519 1518 1517 1516 1516 1516 1515 1514 1513 1512 1512 1511 1510 1509 1509 1510 1510 1509 1507 1506 1505 1503 1502
1528 1527 1525 1524 1523 1521 1520 1518 1517 1516 1516 1516 1515 1514 1513 1513 1512 1512 1513 1513 1514 1514 1515 1516 1517 1517 1518 1519 1519 1519 1519 1520 1520 1521 1521 1522 1522 1522 1522 1522 1523 1523 1524 1524 1524 1524 1523 1522 1520 1519 1518 1517 1516 1515 1515 1515 1515 1515 1514 1513 1511 1510 1509 1509 1508 1509 1509 1509 1508 1506 1505 1504 1502 1501
1528 1527 1526 1524 1522 1521 1519 1517 1517 1516 1515 1515 1514 1514 1513 1512 1512 1512 1513 1513 1514 1515 1516 1517 1518 1518 1519 1519 1520 1520 1520 1521 1521 1521 1522 1522 1522 1522 1522 1522 1523 1523 1523 1522 1522 1522 1522 1520 1519 1518 1517 1516 1516 1515 1516 1515 1515 1514 1513 1512 1511 1509 1508 1507 1507 1508 1508 1507 1507 1505 1504 1503 1502 1501
1528 1527 1526 1524 1523 1521 1519 1518 1517 1516 1515 1514 1514 1513 1513 1512 1512 1512 1513 1514 1515 1516 1517 1517 1518 1518 1519 1520 1520 1521 1521 1521 1521 1522 1522 1522 1522 1523 1523 1523 1523 1522 1522 1522 1521 1521 1520 1519 1519 1518 1517 1517 1516 1516 1515 1515 1514 1513 1512 1512 1510 1508 1507 1507 1507 1507 1507 1506 1505 1504 1503 1502 1501 1500
1529 1527 1526 1524 1523 1521 1519 1518 1517 1516 1515 1515 1514 1513 1513 1513 1513 1513 1514 1515 1516 1516 1517 1517 1518 1519 1519 1520 1521 1522 1522 1521 1521 1522 1522 1523 1523 1524 1524 1523 1523 1522 1521 1521 1521 1520 1519 1518 1518 1517 1517 1516 1516 1515 1514 1513 1512 1511 1511 1511 1509 1508 1507 1506 1506 1506 1505 1505 1504 1503 1502 1501 1500 1499
1529 1528 1527 1526 1524 1522 1521 1519 1518 1517 1516 1515 1514 1514 1513 1513 1513 1514 1515 1516 1516 1517 1517 1518 1519 1520 1521 1522 1523 1523 1523 1522 1522 1523 1523 1524 1524 1524 1523 1523 1522 1522 1521 1521 1520 1519 1518 1518 1517 1517 1516 1515 1515 1514 1513 1512 1511 1510 1510 1509 1508 1508 1508 1507 1506 1506 1505 1504 1503 1502 1501 1500 1499 1498